EW4556 Weather Reports


Display with metric or nautical units.
time (UTC)temp
F
wind
direction
speed
MPH
gust
MPH
rain 1hr
in
rain 24hr
in
rain mn
in
humidity
%
barometer
mb
20260510044559 50 168 0.0 0.0 0.00 0.00 0.00 97 1008.9
20260510043103 50 168 0.0 0.0 0.00 0.00 0.00 97 1008.6
20260510041556 50 168 0.0 0.0 0.00 0.00 0.00 97 1008.6
20260510040056 50 168 0.0 0.0 0.00 0.00 0.00 97 1008.4
20260510034555 50 168 0.0 0.0 0.00 0.00 0.00 96 1008.3
20260510033025 50 168 0.0 0.0 0.00 0.00 0.00 96 1008.3
20260510031526 50 168 0.0 0.0 0.00 0.00 0.00 96 1008.3
20260510030021 50 168 0.0 1.0 0.00 0.00 0.00 96 1008.4
20260510024521 50 168 0.0 0.0 0.00 0.00 0.00 96 1008.3
20260510023020 50 168 0.0 0.0 0.00 0.00 0.00 96 1008.4
20260510021535 50 168 0.0 0.0 0.00 0.00 0.00 96 1008.4
20260510020049 50 168 0.0 0.0 0.00 0.00 0.00 96 1008.3
20260510014549 50 168 0.0 0.0 0.00 0.00 0.00 96 1008.1
20260510013051 50 168 0.0 0.0 0.00 0.00 0.00 96 1008.1
20260510011551 51 168 0.0 0.0 0.00 0.00 0.00 96 1007.9
20260510010045 51 168 0.0 0.0 0.00 0.00 0.00 95 1008.0
20260510004545 51 168 0.0 0.0 0.00 0.00 0.00 96 1008.0
20260510003043 52 168 0.0 0.0 0.00 0.00 0.00 96 1007.8
20260510001544 52 168 0.0 2.0 0.00 0.00 0.00 96 1007.5
20260510000049 52 207 0.0 1.0 0.00 0.00 0.00 95 1007.3
20260509234541 52 207 0.0 1.0 0.00 0.00 0.00 94 1007.3
20260509233035 53 32 0.0 0.0 0.00 0.00 0.00 94 1006.8
20260509231539 53 32 0.0 0.0 0.00 0.00 0.00 94 1006.5
20260509230035 54 63 0.0 1.0 0.00 0.00 0.00 93 1006.7
20260509224532 54 205 0.0 1.0 0.00 0.00 0.00 92 1006.9
20260509223030 55 217 0.0 2.0 0.00 0.00 0.00 93 1006.9
20260509221525 53 221 0.0 0.0 0.00 0.00 0.00 92 1007.1
20260509220024 54 195 0.0 1.0 0.00 0.00 0.00 93 1007.2
20260509214523 53 15 0.0 0.0 0.00 0.00 0.00 94 1007.4
20260509213027 53 15 0.0 1.0 0.00 0.00 0.00 93 1007.4
20260509211516 52 214 0.0 0.0 0.00 0.00 0.00 95 1007.2
20260509210014 52 214 0.0 0.0 0.00 0.00 0.00 95 1007.5
20260509204512 52 214 0.0 0.0 0.00 0.00 0.00 95 1007.8
20260509203016 52 238 0.0 0.0 0.00 0.00 0.00 94 1007.7
20260509201507 51 235 0.0 3.0 0.00 0.00 0.00 95 1007.8
20260509200007 51 263 0.0 2.0 0.00 0.00 0.00 95 1008.1
20260509194505 51 195 0.0 2.0 0.00 0.00 0.00 95 1008.2
20260509193003 51 226 0.0 4.0 0.00 0.00 0.00 95 1008.4
20260509191608 51 266 0.0 2.0 0.00 0.00 0.00 95 1008.8
20260509190059 51 238 0.0 0.0 0.00 0.00 0.00 95 1008.9
20260509184602 52 209 0.0 0.0 0.00 0.00 0.00 96 1008.9
20260509183101 52 151 0.0 0.0 0.00 0.00 0.00 96 1008.9
20260509181527 52 149 0.0 0.0 0.00 0.00 0.00 96 1008.9
20260509180026 52 149 0.0 0.0 0.00 0.00 0.00 96 1008.9
20260509174619 52 149 0.0 0.0 0.00 0.00 0.00 96 1008.9
20260509173054 51 196 0.0 0.0 0.00 0.00 0.00 96 1008.8
20260509171522 51 192 0.0 0.0 0.00 0.00 0.00 96 1008.8
20260509170023 51 192 0.0 1.0 0.00 0.00 0.00 96 1008.6
20260509164516 50 192 0.0 0.0 0.00 0.00 0.00 96 1008.8
20260509163022 50 192 0.0 0.0 0.00 0.00 0.00 96 1008.9
20260509161514 50 192 0.0 1.0 0.00 0.00 0.00 96 1008.8
20260509160011 50 351 0.0 0.0 0.00 0.00 0.00 95 1009.1
20260509154538 49 49 0.0 1.0 0.00 0.00 0.00 96 1009.3
20260509153050 49 290 0.0 0.0 0.00 0.00 0.00 95 1009.6
20260509151532 49 290 0.0 0.0 0.00 0.00 0.00 95 1009.7
20260509150031 49 157 0.0 0.0 0.00 0.00 0.00 95 1009.7
20260509144531 48 138 0.0 0.0 0.00 0.00 0.00 95 1009.6
20260509143029 48 138 0.0 0.0 0.00 0.00 0.00 95 1009.6
20260509141556 48 82 0.0 0.0 0.00 0.00 0.00 95 1009.6
20260509140055 48 82 0.0 1.0 0.00 0.00 0.00 95 1009.6
20260509134525 48 187 0.0 1.0 0.00 0.00 0.00 95 1009.5
20260509133024 48 154 0.0 1.0 0.00 0.00 0.00 95 1009.8
20260509131521 48 155 0.0 1.0 0.00 0.00 0.00 95 1009.7
20260509130031 48 152 0.0 0.0 0.00 0.00 0.00 95 1009.9
20260509124520 48 208 0.0 0.0 0.00 0.00 0.00 95 1009.9
20260509123020 48 256 0.0 0.0 0.00 0.00 0.00 95 1009.7
20260509121523 47 173 0.0 0.0 0.00 0.00 0.00 95 1009.7
20260509120013 47 171 0.0 1.0 0.00 0.00 0.00 95 1009.6
20260509114513 47 182 0.0 0.0 0.00 0.00 0.00 95 1009.6
20260509113012 47 188 0.0 0.0 0.00 0.00 0.00 95 1009.7
20260509111508 47 103 0.0 0.0 0.00 0.00 0.00 95 1009.9
20260509110006 47 64 0.0 0.0 0.00 0.00 0.00 95 1009.9
20260509104509 46 64 0.0 0.0 0.00 0.00 0.00 95 1009.9
20260509103003 46 279 0.0 0.0 0.00 0.00 0.00 95 1009.7
20260509101504 46 279 0.0 0.0 0.00 0.00 0.00 95 1009.7
20260509100106 46 279 0.0 0.0 0.00 0.00 0.00 95 1009.6
20260509094608 46 279 0.0 0.0 0.00 0.00 0.00 94 1009.8
20260509093059 46 279 0.0 0.0 0.00 0.00 0.00 94 1009.9
20260509091606 46 279 0.0 0.0 0.00 0.00 0.00 94 1010.2
20260509090105 46 279 0.0 0.0 0.00 0.00 0.00 94 1010.2
20260509084601 46 279 0.0 0.0 0.00 0.00 0.00 94 1010.2
20260509083101 46 279 0.0 0.0 0.00 0.00 0.00 94 1010.2
20260509081555 46 279 0.0 0.0 0.00 0.00 0.00 94 1010.4
20260509080054 46 279 0.0 0.0 0.00 0.00 0.00 94 1010.6
20260509074554 46 279 0.0 0.0 0.00 0.00 0.00 94 1010.2
20260509073052 46 279 0.0 0.0 0.00 0.00 0.00 93 1009.8
20260509071548 46 279 0.0 0.0 0.00 0.00 0.00 93 1010.2
20260509070044 46 279 0.0 0.0 0.00 0.00 0.00 93 1010.5
20260509064541 46 279 0.0 1.0 0.00 0.00 0.00 92 1010.6
20260509063039 46 276 0.0 0.0 0.00 0.00 0.00 90 1010.6
20260509061542 47 276 0.0 0.0 0.00 0.00 0.00 87 1010.7
20260509060042 47 276 0.0 0.0 0.00 0.00 0.00 83 1010.6
20260509054536 48 280 0.0 0.0 0.00 0.00 0.00 83 1010.5
20260509053101 47 280 0.0 0.0 0.00 0.00 0.00 81 1010.4
20260509051542 47 280 0.0 0.0 0.00 0.00 0.00 81 1010.5
20260509050006 47 280 0.0 0.0 0.00 0.00 0.00 81 1010.6